Regional Weather Roundup
Issued by NWS

Home | Current Version | Previous Version | Text Only | Print | Product List | Glossary On
Versions: 1 2 3 4 5 6 7 8 9 10 11 12 13 14 15 16 17 18 19 20 21 22 23 24 25 26 27 28 29 30 31 32 33 34 35 36 37 38 39 40 41 42 43 44 45 46 47 48 49 50
000
ASUS46 KSEW 230010
RWRWA

WASHINGTON REGIONAL WEATHER ROUNDUP
NATIONAL WEATHER SERVICE SEATTLE WA
500 PM PDT MON SEP 22 2014

NOTE:"FAIR" INDICATES FEW OR NO CLOUDS BELOW 12,000 FEET WITH NO
SIGNIFICANT WEATHER AND/OR OBSTRUCTIONS TO VISIBILITY.

WAZ505-507>509-230100-
SEATTLE, TACOMA, EVERETT, AND VICINITY

CITY           SKY/WX    TMP DP  RH WIND       PRES   REMARKS
EVERETT        CLOUDY    68  54  60 S8        29.96F
6HR MIN TEMP:  63; 6HR MAX TEMP:  68;

BOEING FIELD   PTSUNNY   73  53  49 CALM      29.94F
6HR MIN TEMP:  68; 6HR MAX TEMP:  74;

RENTON         PTSUNNY   71  57  61 S6        29.94F
6HR MIN TEMP:  65; 6HR MAX TEMP:  72;

SEATAC AIRPORT PTSUNNY   70  53  54 SW8       29.97F
6HR MIN TEMP:  64; 6HR MAX TEMP:  72;

JBLM-MCCHORD   PTSUNNY   72  55  54 SW6       29.95F
6HR MIN TEMP:  66; 6HR MAX TEMP:  73;

PUYALLUP       NOT AVBL
JBLM-FT LEWIS  PTSUNNY   72  54  53 SW7       29.94F
6HR MIN TEMP:  66; 6HR MAX TEMP:  73;

TACOMA NARROWS PTSUNNY   71  54  54 W6        29.95F
6HR MIN TEMP:  64; 6HR MAX TEMP:  71;

$$

WAZ001-503-506-510-514-515-230100-
NORTH INTERIOR

CITY           SKY/WX    TMP DP  RH WIND       PRES   REMARKS
BELLINGHAM     MOSUNNY   69  54  58 S6        29.95S
6HR MIN TEMP:  64; 6HR MAX TEMP:  69;

FRIDAY HARBOR    N/A    N/A N/A N/A MISG      29.95F
EASTSOUND      MOSUNNY   68  55  64 S6        29.93S
PORT ANGELES     N/A     67  54  63 E7        29.95F
6HR MIN TEMP:  64; 6HR MAX TEMP:  70;

NAS WHIDBEY    PTSUNNY   72  54  53 SE13      29.95F
6HR MIN TEMP:  62; 6HR MAX TEMP:  74;

BURLINGTON     MOSUNNY   70  57  64 S6        29.96F
$$

WAZ020-022-039-040-504-511-512-230100-
SOUTHWEST INTERIOR

CITY           SKY/WX    TMP DP  RH WIND       PRES   REMARKS
SHELTON        CLOUDY    67  56  67 SW9       29.93F
6HR MIN TEMP:  63; 6HR MAX TEMP:  69;

OLYMPIA        PTSUNNY   72  54  53 W9        29.94F
6HR MIN TEMP:  66; 6HR MAX TEMP:  72;

CHEHALIS       FAIR      72  57  60 SW3       29.95F
KELSO          MOSUNNY   72  54  53 CALM      29.97F
6HR MIN TEMP:  66; 6HR MAX TEMP:  73;

VANCOUVER      MOSUNNY   70  53  54 CALM      29.93F
6HR MIN TEMP:  65; 6HR MAX TEMP:  70;

SCAPPOOSE, OR  MOSUNNY   72  53  51 SE6       29.93F
6HR MIN TEMP:  66; 6HR MAX TEMP:  74;

PORTLAND, OR   PTSUNNY   69  55  60 CALM      29.95F
6HR MIN TEMP:  64; 6HR MAX TEMP:  71; 6HR PCP: TRACE;

$$

WAZ021-516-517-230100-
WASHINGTON COAST

CITY           SKY/WX    TMP DP  RH WIND       PRES   REMARKS
FORKS          CLOUDY    63  58  83 S8        29.95S
6HR MIN TEMP:  60; 6HR MAX TEMP:  64; 6HR PCP: TRACE;

HOQUIAM        CLOUDY    65  58  78 S6        29.96F
6HR MIN TEMP:  61; 6HR MAX TEMP:  66;

ASTORIA, OR    CLOUDY    64  55  72 SW9       29.95F
6HR MIN TEMP:  63; 6HR MAX TEMP:  68;

$$

WAZ019-023-024-040-518-519-230100-
CASCADE MOUNTAINS AND COLUMBIA GORGE

CITY           SKY/WX    TMP DP  RH WIND       PRES   REMARKS
STAMPEDE PASS  NOT AVBL
TROUTDALE, OR  CLOUDY    70  54  56 SE5       29.94S
6HR MIN TEMP:  65; 6HR MAX TEMP:  71;

THE DALLES, OR PTSUNNY   76  49  38 NW15      29.85F
6HR MIN TEMP:  73; 6HR MAX TEMP:  84;

$$

WAZ026-027-041>044-520-521-230100-
EAST SLOPES

CITY           SKY/WX    TMP DP  RH WIND       PRES   REMARKS
OMAK           PTSUNNY   78  47  33 SE3       29.86S
6HR MIN TEMP:  70; 6HR MAX TEMP:  81; 6HR PCP: TRACE;

WENATCHEE      CLOUDY    82  52  35 W5        29.85S
6HR MIN TEMP:  69; 6HR MAX TEMP:  83; 6HR PCP: TRACE;

ELLENSBURG     CLOUDY    77  54  44 NW14      29.88F
6HR MIN TEMP:  66; 6HR MAX TEMP:  85; 6HR PCP:  0.06;

YAKIMA         CLOUDY    82  50  32 W3        29.85S
6HR MIN TEMP:  70; 6HR MAX TEMP:  85; 6HR PCP: TRACE;

$$

WAZ028-034-035-230100-
COLUMBIA BASIN

CITY           SKY/WX    TMP DP  RH WIND       PRES   REMARKS
EPHRATA        PTSUNNY   81  51  35 S7        29.85S
6HR MIN TEMP:  73; 6HR MAX TEMP:  84;

MOSES LAKE     PTSUNNY   82  51  34 S7        29.85F
6HR MIN TEMP:  72; 6HR MAX TEMP:  85;

PASCO          PTSUNNY   83  55  38 E12       29.82F
6HR MIN TEMP:  78; 6HR MAX TEMP:  86; 6HR PCP: TRACE;

HERMISTON, OR  CLOUDY    85  48  27 W5        29.83F
6HR MIN TEMP:  76; 6HR MAX TEMP:  87; 6HR PCP: TRACE;

$$

WAZ036>038-230100-
NORTHEAST WASHINGTON

CITY           SKY/WX    TMP DP  RH WIND       PRES   REMARKS
SPOKANE GEIGER CLOUDY    80  46  30 SW10      29.91F
6HR MIN TEMP:  73; 6HR MAX TEMP:  85;

SPOKANE FELTS  CLOUDY    84  45  25 SW10      29.89F
6HR MIN TEMP:  73; 6HR MAX TEMP:  87;

FAIRCHILD AFB  CLOUDY    79  48  33 SW10      29.92F
6HR MIN TEMP:  73; 6HR MAX TEMP:  84;

COEURDALENE,ID MOSUNNY   81  46  30 SW8       29.90S
6HR MIN TEMP:  70; 6HR MAX TEMP:  84;

DEER PARK      CLOUDY    82  46  28 S12       29.89F
6HR MIN TEMP:  68; 6HR MAX TEMP:  84;

$$

WAZ029>033-230100-
SOUTHEAST WASHINGTON

CITY           SKY/WX    TMP DP  RH WIND       PRES   REMARKS
PULLMAN        PTSUNNY   79  44  28 W7        29.96F
6HR MIN TEMP:  75; 6HR MAX TEMP:  84;

LEWISTON, ID   PTSUNNY   79  50  36 N6        29.88F
6HR MIN TEMP:  69; 6HR MAX TEMP:  83; 6HR PCP: TRACE;

WALLA WALLA    PTSUNNY   82  45  27 CALM      29.88F
PENDLETON, OR  PTSUNNY   81  48  31 NW8       29.88F
6HR MIN TEMP:  77; 6HR MAX TEMP:  85; 6HR PCP: TRACE;

$$


USA.gov is the U.S. government's official web portal to all federal, state and local government web resources and services.